STARLINK-32657, 62475

Orbit data source: Space-Track

STARLINK-32657, 62475 is a payload satellite owned by SpaceX/Seattle (US) in LEO that was launched on Tue, 31 Dec 2024 UTC via an FALCON 9 launch vehicle from the Air Force Eastern Test Range (AFETR). Payload-class satellites include a variety of spacecraft equipped with specific instruments for various scientific and technological missions. These include communications satellites like Starlink; space stations such as the ISS; scientific satellites like the Hubble; Earth observation satellites from companies like Planet Labs, Umbra, and HawkEye 360; GPS; miniature CubeSats for education and research; and military/defense satellites.

Loading next visibility...
Identifier
62475, 2024-254P
Orbit
LEO
Country
Flag of USUS
Related business
Manufacturer
SpaceX/Seattle
Mission
Operational Commercial Communications
Bus & Motor
STARLINK V2M, Unknown motor
Mass
730 kg wet, ~700 kg dry
Launch date (UTC)
2024-12-31 (10 months ago)
Launch vehicle
FALCON 9
Launch site
Air Force Eastern Test Range (AFETR)
Object type
Payload
Rocket body
Debris
Shape & HBR
Box + 2 Pan, 17.7 m
Radar Cross Section
33.884 m², Large (>1 m²)

Expand to show TLE details & history
Last TLE update: 6 hours ago

TLE from 6 hours ago
0 STARLINK-32657
1 62475U 24254P   25298.39690053  .00040015  00000-0  14539-2 0  9996
2 62475  43.0031  63.7324 0000892 289.8851  70.1905 15.27623705 46776
Epoch: 2025-10-25T09:31Z
TLE epoch observation values (Epoch: 2025-10-25T09:31:32.205Z)
Latitude
-0°
Longitude
-113.17983°
Altitude
482.487 km
Speed
7.626 km/s
True Right ascension
04h 14m 55s
True Declination
0° 00' 00"
Sunlit
Object was in full shadow at epoch
Visualization orbit readout
Latitude
Unknown
Longitude
Unknown
Altitude
Unknown
Speed
Unknown
Apparent Right ascension
Unknown
Apparent Declination
Unknown
Sunlit
N/A
Visualization observer readout
Local Sidereal Time
10:37:41
Azimuth
Unknown
Elevation
Unknown
Doppler factor
Unknown
Orbital elements
Apogee altitude
485.475 km
Perigee altitude
484.251 km
Semi-major axis
6,863 km
Eccentricity
0.00009
Inclination
43.0031°
RAAN
63.7324°
Arg. of periapsis
289.8851°
True anomaly
70.20012°
Mean anomaly
70.1905°
Eccentric anomaly
70.19531°
Mean motion
3.81744 °/min
Orbital period
94.3 mins
BSTAR
0.0014539
Loading maneuver chart data...
Computing Atmospheric mass density...
Loading historical data...
Loading historical data...
Loading historical data...
Loading historical data...
Loading historical data...
Loading historical data...
Loading historical data...

Documentation

Showing up to 5 results
|